Weather reports worldwide

Advertisment
Gotska sandoen, Sweden (2589): temperature & dewpoint: 06.12.2019 12:00:00 - 12.12.2019 12:00:00 (CET)Gotska sandoen, Sweden (2589): wind speed & gusts: 06.12.2019 12:00:00 - 12.12.2019 12:00:00 (CET)Gotska sandoen, Sweden (2589): wind direction: 06.12.2019 12:00:00 - 12.12.2019 12:00:00 (CET)Gotska sandoen, Sweden (2589): reduced air pressure: 06.12.2019 12:00:00 - 12.12.2019 12:00:00 (CET)Gotska sandoen, Sweden (2589): visibility: 06.12.2019 12:00:00 - 12.12.2019 12:00:00 (CET)Gotska sandoen, Sweden (2589): precipitation: 06.12.2019 12:00:00 - 12.12.2019 12:00:00 (CET)
Date & Time tt [°C] td [°C] ff [km/h] ff [kn] fx [km/h] fx [kn] dd ppp [hPa] vv [km] rr [mm]
12.12.2019 12:00:00 3,3 -0,5 26 14 54 29 SSW 1001,6 20 0,0
12.12.2019 11:00:00 3,6 -1,4 29 16 63 34 SSW 1002,1 20 0,0
12.12.2019 10:00:00 3,7 -0,1 33 18 61 33 SSW 1002,5 18 0,0
12.12.2019 09:00:00 3,9 0,8 27 15 55 30 SSW 1002,6 22 0,0
12.12.2019 08:00:00 3,7 1,1 27 15 54 29 SSW 1002,7 23 0,0
12.12.2019 07:00:00 3,6 2,3 25 13 47 25 SSW 1002,8 10 0,1
12.12.2019 06:00:00 3,7 2,5 24 13 48 26 SSW 1003,2 8 0,0
12.12.2019 05:00:00 3,3 2,3 24 13 49 26 SSW 1003,5 10 0,5
12.12.2019 04:00:00 3,4 2,5 27 14 47 26 SSW 1003,9 7 0,5
12.12.2019 03:00:00 3,6 2,9 24 13 53 29 SSW 1004,3 9 0,7
12.12.2019 02:00:00 3,6 2,9 24 13 46 25 SSW 1004,6 11 0,8
12.12.2019 01:00:00 3,8 3,1 25 14 49 26 SSW 1005,1 9 0,6
12.12.2019 00:00:00 3,9 3,2 27 15 46 25 SSW 1005,5 13 0,6
11.12.2019 23:00:00 4,0 3,3 26 14 47 25 SSW 1005,8 11 1,0
11.12.2019 22:00:00 4,2 3,3 22 12 43 23 SSW 1006,1 11 0,7
11.12.2019 21:00:00 4,3 3,4 26 14 46 25 SSW 1006,2 20 0,4
11.12.2019 20:00:00 4,8 4,1 25 13 44 24 SSW 1006,0 13 0,4
11.12.2019 19:00:00 5,1 4,1 23 12 44 24 SSW 1006,0 17 0,0
11.12.2019 18:00:00 5,1 4,2 24 13 42 23 SSW 1006,1 18 0,0
11.12.2019 17:00:00 5,3 4,1 22 12 48 26 SW 1006,2 18 0,0
11.12.2019 16:00:00 5,2 4,0 25 13 48 26 SSW 1006,2 13 0,0
11.12.2019 15:00:00 4,9 3,9 26 14 52 28 SSW 1006,2 11 0,1
11.12.2019 14:00:00 4,9 3,2 31 17 57 31 SW 1006,0 13 0,0
11.12.2019 13:00:00 4,7 3,0 32 17 61 33 SSW 1005,9 12 0,1
11.12.2019 12:00:00 4,7 2,6 36 19 63 34 SSW 1006,1 12 0,0
11.12.2019 11:00:00 5,1 1,9 37 20 71 38 SSW 1006,5 15 0,0
11.12.2019 10:00:00 5,2 1,9 39 21 71 38 SSW 1006,6 18 0,0
11.12.2019 09:00:00 5,0 2,0 37 20 69 38 SSW 1007,2 17 0,1
11.12.2019 08:00:00 4,5 2,0 41 22 71 38 SSW 1007,4 11 0,1
11.12.2019 07:00:00 4,8 1,3 36 20 72 39 SSW 1007,8 37 0,0
11.12.2019 06:00:00 4,5 0,6 38 21 71 38 SSW 1008,9 50 0,0
11.12.2019 05:00:00 3,9 -1,1 37 20 73 39 SSW 1009,6 50 0,0
11.12.2019 04:00:00 3,7 -1,5 35 19 64 34 SSW 1011,1 50 0,0
11.12.2019 03:00:00 3,1 -1,3 34 18 60 33 SSW 1012,1 50 0,0
11.12.2019 02:00:00 2,5 -0,8 35 19 61 33 SSW 1013,5 50 0,0
11.12.2019 01:00:00 2,2 -1,6 30 16 57 31 SSW 1014,5 50 0,0
11.12.2019 00:00:00 1,8 -2,0 24 13 40 22 SSW 1015,4 50 0,0
10.12.2019 23:00:00 1,4 -1,7 19 11 36 20 SSW 1016,0 50 0,0
10.12.2019 22:00:00 1,3 -1,3 16 9 29 16 SSW 1016,1 50 0,0
10.12.2019 21:00:00 -1,4 -2,4 11 6 18 10 SSW 1016,7 50 0,0
10.12.2019 20:00:00 -2,6 -3,4 9 5 12 7 SSW 1017,2 50 0,0
10.12.2019 19:00:00 -2,4 -3,5 4 2 10 5 WSW 1017,0 50 0,0
10.12.2019 18:00:00 -1,5 -3,4 6 3 14 8 NW 1017,3 50 0,0
10.12.2019 17:00:00 -0,5 -3,0 9 5 22 12 NNW 1016,9 50 0,0
10.12.2019 16:00:00 -0,3 -2,2 10 5 23 12 NW 1016,3 50 0,0
10.12.2019 15:00:00 -0,1 -2,3 11 6 21 11 NNW 1015,6 50 0,0
10.12.2019 14:00:00 0,7 -1,7 13 7 26 14 N 1014,9 50 0,0
10.12.2019 13:00:00 0,7 -1,4 15 8 35 19 NNW 1013,9 50 0,0
10.12.2019 12:00:00 0,6 -1,3 16 9 29 16 NNW 1012,5 46 0,0
10.12.2019 11:00:00 0,4 -1,7 20 11 38 20 NNW 1011,8 44 0,0
10.12.2019 10:00:00 0,7 -1,1 23 12 36 19 NNW 1010,7 46 0,0
10.12.2019 09:00:00 0,8 -0,8 18 10 40 22 N 1009,2 40 0,0
10.12.2019 08:00:00 1,2 -0,4 19 10 42 23 N 1007,6 30 0,0
10.12.2019 07:00:00 1,7 0,1 23 12 56 30 N 1006,1 32 0,0
10.12.2019 06:00:00 1,8 0,6 27 15 55 30 NNE 1004,2 16 0,1
10.12.2019 05:00:00 2,1 0,9 26 14 57 31 NNE 1002,5 23 0,1
10.12.2019 04:00:00 2,1 1,4 27 14 58 31 NNE 1000,4 10 0,6
10.12.2019 03:00:00 2,9 2,2 25 14 53 29 NNE 998,4 13 0,2
10.12.2019 02:00:00 3,2 2,6 27 15 49 26 NNE 996,8 24 0,8
10.12.2019 01:00:00 5,0 3,0 13 7 36 20 N 994,5 27 0,0
10.12.2019 00:00:00 6,1 4,3 20 11 34 19 WSW 993,5 24 0,0
09.12.2019 23:00:00 6,1 3,6 25 14 39 21 WSW 992,6 32 0,0
09.12.2019 22:00:00 6,5 4,7 26 14 49 26 WSW 991,9 20 0,0
09.12.2019 21:00:00 6,5 4,7 27 15 42 23 WSW 991,3 21 0,0
09.12.2019 20:00:00 6,6 4,3 30 16 50 27 WSW 990,8 40 0,0
09.12.2019 19:00:00 6,8 4,5 27 15 50 27 SW 989,9 24 0,0
09.12.2019 18:00:00 6,4 4,2 24 13 49 26 SW 989,5 12 0,0
09.12.2019 17:00:00 6,5 4,0 27 14 49 26 SW 988,9 25 0,0
09.12.2019 16:00:00 6,6 3,9 29 15 50 27 SW 988,4 20 0,0
09.12.2019 15:00:00 6,6 3,9 32 17 58 31 WSW 987,7 18 0,0
09.12.2019 14:00:00 6,7 4,0 30 16 53 29 WSW 987,2 20 0,0
09.12.2019 13:00:00 6,7 4,1 33 18 52 28 WSW 986,8 21 0,0
09.12.2019 12:00:00 6,9 3,9 35 19 58 31 WSW 986,1 27 0,0
09.12.2019 11:00:00 6,6 4,3 35 19 59 32 WSW 985,3 24 0,0
09.12.2019 10:00:00 6,6 4,3 37 20 62 33 WSW 984,9 22 0,0
09.12.2019 09:00:00 6,4 3,7 40 22 63 34 WSW 984,0 22 0,0
09.12.2019 08:00:00 6,4 3,6 40 21 67 36 WSW 983,2 29 0,0
09.12.2019 07:00:00 6,5 3,6 40 21 63 34 WSW 982,6 26 0,0
09.12.2019 06:00:00 6,2 3,9 42 23 71 39 WSW 982,0 24 0,0
09.12.2019 05:00:00 6,1 3,8 42 23 68 37 WSW 981,4 30 0,0
09.12.2019 04:00:00 6,2 3,9 42 23 68 37 WSW 980,8 27 0,0
09.12.2019 03:00:00 6,3 4,1 41 22 68 37 WSW 980,6 23 0,0
09.12.2019 02:00:00 6,4 4,2 39 21 68 37 WSW 980,4 16 0,0
09.12.2019 01:00:00 6,5 4,2 40 21 67 36 WSW 979,9 17 0,0
09.12.2019 00:00:00 6,5 4,5 35 19 60 32 WSW 979,8 22 0,0
08.12.2019 23:00:00 6,6 4,4 37 20 63 34 WSW 979,3 32 0,0
08.12.2019 22:00:00 7,2 5,2 39 21 62 34 WSW 978,8 28 0,0
08.12.2019 21:00:00 7,3 5,9 40 21 67 36 WSW 978,3 30 0,0
08.12.2019 20:00:00 7,3 6,2 40 22 69 37 WSW 978,0 28 0,0
08.12.2019 19:00:00 7,3 6,1 41 22 72 39 WSW 977,7 24 0,0
08.12.2019 18:00:00 7,2 6,1 45 24 72 39 WSW 977,9 22 0,0
08.12.2019 17:00:00 7,0 6,1 41 22 78 42 SW 978,3 20 0,0
08.12.2019 16:00:00 6,8 6,1 42 23 74 40 SW 979,5 13 1,0
08.12.2019 15:00:00 6,6 6,0 42 23 71 38 SW 980,9 7 1,4
08.12.2019 14:00:00 6,2 5,8 29 16 52 28 SW 982,4 6 2,3
08.12.2019 13:00:00 5,5 4,9 26 14 52 28 SSW 984,1 10 0,9
08.12.2019 12:00:00 4,6 4,0 21 12 41 22 SSW 986,8 12 0,5
08.12.2019 11:00:00 4,2 3,2 23 12 46 25 SSW 989,1 11 0,1
08.12.2019 10:00:00 5,0 2,9 24 13 46 25 SW 991,0 30 0,0
08.12.2019 09:00:00 4,4 1,8 29 15 47 25 WSW 992,0 36 0,0
08.12.2019 08:00:00 4,0 0,9 26 14 43 23 WSW 993,0 50 0,0
08.12.2019 07:00:00 3,4 0,1 24 13 40 22 W 993,4 50 0,0
08.12.2019 06:00:00 3,2 0,3 26 14 41 22 W 993,7 50 0,0
08.12.2019 05:00:00 3,2 0,9 23 12 43 23 W 994,2 50 0,0
08.12.2019 04:00:00 3,1 0,8 21 12 42 23 W 994,5 50 0,0
08.12.2019 03:00:00 3,0 0,9 20 11 38 21 W 994,4 50 0,0
08.12.2019 02:00:00 2,8 0,9 20 11 40 21 WNW 994,5 50 0,0
08.12.2019 01:00:00 2,7 1,1 24 13 47 26 WNW 994,1 50 0,0
08.12.2019 00:00:00 2,8 1,3 24 13 45 25 WNW 993,5 50 0,0
07.12.2019 23:00:00 2,8 1,3 26 14 52 28 WNW 992,7 50 0,0
07.12.2019 22:00:00 2,9 1,6 28 15 56 31 NW 992,1 50 0,0
07.12.2019 21:00:00 3,0 2,0 29 15 51 28 NW 991,1 43 0,0
07.12.2019 20:00:00 3,2 2,8 30 16 51 28 NW 990,0 23 0,4
07.12.2019 19:00:00 3,4 3,0 27 15 47 26 NW 988,4 13 1,0
07.12.2019 18:00:00 3,9 3,3 24 13 45 24 NW 987,4 7 0,9
07.12.2019 17:00:00 4,5 3,8 24 13 40 22 NW 986,7 50 0,1
07.12.2019 16:00:00 5,1 4,7 18 10 48 26 NW 985,8 11 0,1
07.12.2019 15:00:00 6,9 6,6 27 14 42 23 W 984,6 17 0,2
07.12.2019 14:00:00 7,1 6,5 26 14 41 22 W 984,6 7 0,1
07.12.2019 13:00:00 7,2 6,3 28 15 53 29 WSW 984,9 42 0,0
07.12.2019 12:00:00 7,2 6,3 33 18 53 29 WSW 985,2 41 0,0
07.12.2019 11:00:00 7,2 6,3 29 16 58 31 WSW 985,5 33 0,0
07.12.2019 10:00:00 7,1 6,2 27 14 57 31 SW 986,0 34 0,0
07.12.2019 09:00:00 6,8 6,2 31 17 54 29 SW 986,2 30 0,0
07.12.2019 08:00:00 6,7 6,3 29 16 50 27 SW 986,5 19 0,1
07.12.2019 07:00:00 6,6 6,2 29 16 48 26 SW 987,3 7 0,2
07.12.2019 06:00:00 6,6 6,0 30 16 51 28 SW 987,6 16 0,1
07.12.2019 05:00:00 6,6 5,9 28 15 50 27 SW 988,1 19 0,0
07.12.2019 04:00:00 6,4 5,8 28 15 57 31 SW 988,7 13 0,0
07.12.2019 03:00:00 6,5 6,1 29 16 54 29 SW 989,4 22 0,2
07.12.2019 02:00:00 6,7 6,1 29 16 51 27 SW 990,3 8 0,4
07.12.2019 01:00:00 6,9 6,5 28 15 48 26 SW 990,9 4,8 0,1
07.12.2019 00:00:00 7,5 6,6 27 14 48 26 SW 991,7 13 0,0
06.12.2019 23:00:00 7,6 6,9 29 16 48 26 SW 992,2 33 0,0
06.12.2019 22:00:00 7,4 6,7 25 13 42 23 SW 992,5 11 0,0
06.12.2019 21:00:00 7,4 5,9 27 15 44 24 WSW 992,7 39 0,0
06.12.2019 20:00:00 7,4 5,9 21 11 39 21 WSW 992,7 36 0,0
06.12.2019 19:00:00 7,3 5,9 21 12 33 18 WSW 992,6 33 0,0
06.12.2019 18:00:00 7,5 6,0 19 11 37 20 W 992,4 36 0,0
06.12.2019 17:00:00 7,7 6,2 24 13 43 23 W 991,9 39 0,0
06.12.2019 16:00:00 7,6 6,5 26 14 45 24 W 991,2 33 0,0
06.12.2019 15:00:00 7,4 6,7 29 16 55 30 WSW 990,7 27 0,0
06.12.2019 14:00:00 7,4 6,7 37 20 64 35 WSW 990,1 13 0,0
06.12.2019 13:00:00 7,7 6,3 40 21 73 39 WSW 989,2 24 0,0
06.12.2019 12:00:00 7,6 6,2 42 23 73 39 WSW 988,6 18 0,0

tt = temperature
td = dewpoint
ff = wind speed
fx = gusts
dd = wind direction
ppp = reduced air pressure
vv = visibility
rr = precipitation

Next stations